Location: Unspecified
(0.0000°N, 0.0000°E)
Time: 10:05:45
(UTC+00:00)

A-11 Canister half - Pass Details

Date: 03 August 2021
Orbit: 1515 x 1685 km, 47.2° (Epoch: 27 September)

Event Time Altitude Azimuth Distance (km) Brightness Sun altitude
Rises 11:41:53 0° 199° (SSW) 4,656 11.3 71.6°
Reaches altitude 10° 11:45:28 10° 188° (S) 3,677 10.9 71.9°
Maximum altitude 11:53:10 29° 131° (SE) 2,508 10.5 72.3°
Drops below altitude 10° 12:00:56 10° 75° (ENE) 3,737 11.3 72.6°
Sets 12:04:35 0° 64° (ENE) 4,744 11.7 72.6°
